Location: Unspecified
(0.0000°N, 0.0000°E)
Time: 18:53:00
(UTC+00:00)

Courier 1B Rocket - Pass Details

Date: 28 November 2019
Orbit: 920 x 1202 km, 28.2° (Epoch: 05 December)

Event Time Altitude Azimuth Distance (km) Brightness Sun altitude
Rises 05:11:48 0° 220° (SW) 3,803 7.9 -8.4°
Reaches altitude 10° 05:15:11 10° 206° (SSW) 2,797 7.4 -7.6°
Maximum altitude 05:20:27 24° 154° (SSE) 1,906 7.2 -6.4°
Drops below altitude 10° 05:25:28 10° 102° (ESE) 2,660 9.1 -5.2°
Sets 05:28:34 0° 89° (E) 3,576 9.4 -4.5°
